Regional Weather Roundup
Issued by NWS Albany, NY

Home | Current Version | Previous Version | Graphics & Text | Print | Product List | Glossary On
Versions: 1 2 3 4 5 6 7 8 9 10 11 12 13 14 15 16 17 18 19 20 21 22 23 24 25 26 27 28 29 30 31 32 33 34 35 36 37 38 39 40 41 42 43 44 45 46 47 48 49 50
616
ASUS41 KALY 160410
RWRALY

NEW YORK STATE HOURLY WEATHER ROUNDUP
NATIONAL WEATHER SERVICE ALBANY NY
1100 PM EST SUN JAN 15 2017

NOTE: "FAIR" INDICATES FEW OR NO CLOUDS BELOW 12,000 FEET WITH NO
SIGNIFICANT WEATHER AND/OR NO OBSTRUCTIONS TO VISIBILITY.

NYZ032-033-038>043-046>054-057>066-NYZ062>081-082-084-160500-
EAST


CITY           SKY/WX    TMP DP  RH WIND       PRES   REMARKS
ALBANY         CLEAR     24  14  65 CALM      30.42S
GLENS FALLS    CLEAR     16  10  77 CALM      30.43R
POUGHKEEPSIE   CLEAR     20  17  88 CALM      30.41R
NEWBURGH       CLEAR     21  19  93 CALM      30.41R
MONTGOMERY     CLEAR     22  17  81 CALM      30.39R
WHITE PLAINS   CLEAR     26  18  71 NW8       30.38S WCI  18
ISLIP          CLEAR     25  21  85 N3        30.40R
NEW YORK CITY  CLEAR     35  20  54 N6        30.41S WCI  30
CENTRAL PARK   CLEAR     32  19  58 VRB3      30.43R
$$

NYZ005>009-017-018-044>046-055-056-160500-
CENTRAL


CITY           SKY/WX    TMP DP  RH WIND       PRES   REMARKS
FULTON         CLOUDY    30  20  66 SW5       30.39F WCI  25
SYRACUSE       CLOUDY    29  19  66 W7        30.40R WCI  22
ROME           CLOUDY    24  19  81 E3        30.42R
ELMIRA         CLEAR     17  11  77 CALM      30.39R
BINGHAMTON     CLEAR     20  14  77 CALM      30.33S
MONTICELLO     CLEAR     19  16  86 NW3       30.36S
$$

NYZ026>034-041>043-087-160500-
NORTH


CITY           SKY/WX    TMP DP  RH WIND       PRES   REMARKS
WATERTOWN      CLOUDY    23  19  85 S3        30.38S
FORT DRUM      NOT AVBL
OGDENSBURG     FAIR      19  16  90 MISG      30.37S
MASSENA        CLEAR     14   9  80 CALM      30.39F
SARANAC LAKE   CLOUDY     2  -3  80 CALM      30.29S
PLATTSBURGH    CLEAR     11   5  77 CALM      30.41F
$$

NYZ001>004-010>016-019>021-085-160500-
WEST


CITY           SKY/WX    TMP DP  RH WIND       PRES   REMARKS
NIAGARA FALLS  CLEAR     20  15  81 CALM      30.36F
BUFFALO        CLEAR     21  16  81 S3        30.37S
DUNKIRK        MIX PCPN  18  16  92 CALM      30.39R
JAMESTOWN      CLEAR     23  19  86 CALM      30.30S
WELLSVILLE     CLEAR     21  16  81 CALM      30.31S
ROCHESTER      PTCLDY    21  16  81 CALM      30.38F
PENN YAN       CLEAR     23  17  78 SW5       30.38R WCI  17
$$

             KEY
       WCI = WIND CHILL INDEX
       VSB = VISIBILITY
       HX  = HEAT INDEX
$$




USA.gov is the U.S. government's official web portal to all federal, state and local government web resources and services.